Rickenbacker, OH

3:43 AM EDT on September 18, 2019 (GMT -0400)
Rickenbacker International

Weather History for KLCK - August, 2019

Change the Weather History Date:

Saturday, August 24, 2019

  Actual Average Record
Temperature  
Mean Temperature 66 °F -  
Max Temperature 77 °F 82 °F 98 °F (2007)
Min Temperature 55 °F 61 °F 53 °F (2018)
Cooling Degree Days 1    
Growing Degree Days 16 (Base 50)    
Moisture  
Dew Point 51 °F    
Average Humidity 59    
Maximum Humidity 88    
Minimum Humidity 36    
Precipitation  
Precipitation 0.00 in - - ()
Sea Level Pressure  
Sea Level Pressure 30.18 in    
Wind  
Wind Speed 8 mph (NE)    
Max Wind Speed 17 mph    
Max Gust Speed -    
Visibility 10 miles    
Events      
Averages and records for this station are not official NWS values.
T = Trace of Precipitation, MM = Missing Value Source: NWS Daily Summary

Daily Weather History Graph

Daily Weather History Graph

Search for Another Location

Airport or City:

Astronomy

Aug. 24, 2019 Rise Set
Actual Time 6:51 AM EDT 8:15 PM EDT
Civil Twilight 6:23 AM EDT 8:43 PM EDT
Nautical Twilight 5:49 AM EDT 9:17 PM EDT
Astronomical Twilight 5:14 AM EDT 9:53 PM EDT
Moon 12:44 AM EDT (8/24) 3:29 PM EDT (8/24)
Length of Visible Light 14h 19m
Length of Day
13h 23m
Last Quarter, 39% of the Moon is Illuminated
Aug 24
Last Quarter
Aug 30
New
Sep 5
First Quarter
Sep 14
Full
Sep 21
Last Quarter

Hourly Weather History & Observations

Time (EDT) Temp. Dew Point Humidity Pressure Visibility Wind Dir Wind Speed Gust Speed Precip Events Conditions
12:00 AM 60.8 °F 51.8 °F 72% 30.17 in 10.0 mi NNE 4.6 mph - N/A   Clear
1:00 AM 60.8 °F 51.8 °F 72% 30.18 in 10.0 mi NE 6.9 mph - N/A   Clear
3:00 AM 59.0 °F 51.8 °F 77% 30.17 in 10.0 mi NE 5.8 mph - N/A   Clear
4:30 AM 57.2 °F 51.8 °F 82% 30.19 in 10.0 mi NE 4.6 mph - N/A   Clear
5:20 AM 57.2 °F 51.8 °F 82% 30.19 in 10.0 mi NNE 3.5 mph - N/A   Clear
6:20 AM 55.4 °F 51.8 °F 88% 30.20 in 10.0 mi North 4.6 mph - N/A   Clear
7:56 AM 57.2 °F 53.6 °F 88% 30.21 in 10.0 mi North 5.8 mph - N/A   Clear
8:56 AM 62.6 °F 55.4 °F 77% 30.22 in 10.0 mi ENE 5.8 mph - N/A   Clear
10:00 AM 68.0 °F 53.6 °F 60% 30.21 in 10.0 mi ENE 13.8 mph - N/A   Partly Cloudy
11:00 AM 73.4 °F 51.8 °F 47% 30.21 in 10.0 mi ENE 10.4 mph - N/A   Partly Cloudy
12:00 PM 73.4 °F 48.2 °F 41% 30.22 in 10.0 mi ENE 13.8 mph - N/A   Scattered Clouds
1:00 PM 75.2 °F 48.2 °F 38% 30.20 in 10.0 mi ENE 17.3 mph - N/A   Scattered Clouds
2:00 PM 77.0 °F 48.2 °F 36% 30.19 in 10.0 mi East 16.1 mph - N/A   Mostly Cloudy
3:00 PM 77.0 °F 50.0 °F 39% 30.18 in 10.0 mi East 12.7 mph - N/A   Mostly Cloudy
4:00 PM 77.0 °F 50.0 °F 39% 30.16 in 10.0 mi ENE 13.8 mph - N/A   Scattered Clouds
5:00 PM 77.0 °F 50.0 °F 39% 30.16 in 10.0 mi ENE 15.0 mph - N/A   Mostly Cloudy
6:00 PM 75.2 °F 50.0 °F 41% 30.16 in 10.0 mi East 9.2 mph - N/A   Scattered Clouds
7:00 PM 75.2 °F 51.8 °F 44% 30.15 in 10.0 mi East 10.4 mph - N/A   Clear
8:00 PM 71.6 °F 51.8 °F 50% 30.15 in 10.0 mi ENE 9.2 mph - N/A   Clear
9:00 PM 69.8 °F 53.6 °F 56% 30.16 in 10.0 mi ENE 8.1 mph - N/A   Clear
11:00 PM 64.4 °F 53.6 °F 68% 30.19 in 10.0 mi ENE 6.9 mph - N/A   Clear